| time (UTC) | temp F | wind direction | speed knots | gust knots | rain 1hr in | rain 24hr in | rain mn in | humidity % | barometer mb |
| 20260507023049 | 58 | 17 | 0.9 | 2.6 | 0.00 | 0.00 | 0.00 | 74 | 1021.3 |
| 20260507022545 | 58 | 97 | 0.9 | 1.7 | 0.00 | 0.00 | 0.00 | 74 | 1021.2 |
| 20260507022040 | 58 | 19 | 0.0 | 2.6 | 0.00 | 0.00 | 0.00 | 73 | 1021.1 |
| 20260507021537 | 58 | 82 | 1.7 | 2.6 | 0.00 | 0.00 | 0.00 | 72 | 1021.2 |
| 20260507021033 | 58 | 339 | 0.0 | 1.7 | 0.00 | 0.00 | 0.00 | 72 | 1021.0 |
| 20260507020531 | 58 | 60 | 0.9 | 3.5 | 0.00 | 0.00 | 0.00 | 72 | 1021.2 |
| 20260507020027 | 59 | 89 | 2.6 | 2.6 | 0.00 | 0.00 | 0.00 | 71 | 1021.2 |
| 20260507015526 | 59 | 46 | 0.0 | 3.5 | 0.00 | 0.00 | 0.00 | 71 | 1021.0 |
| 20260507015023 | 59 | 91 | 3.5 | 6.1 | 0.00 | 0.00 | 0.00 | 71 | 1021.2 |
| 20260507014519 | 58 | 91 | 1.7 | 3.5 | 0.00 | 0.00 | 0.00 | 71 | 1021.1 |
| 20260507014015 | 59 | 76 | 1.7 | 3.5 | 0.00 | 0.00 | 0.00 | 71 | 1021.1 |
| 20260507013512 | 59 | 38 | 1.7 | 3.5 | 0.00 | 0.00 | 0.00 | 71 | 1021.1 |
| 20260507013009 | 59 | 87 | 1.7 | 3.5 | 0.00 | 0.00 | 0.00 | 71 | 1021.0 |
| 20260507012506 | 59 | 79 | 1.7 | 3.5 | 0.00 | 0.00 | 0.00 | 71 | 1021.2 |
| 20260507012003 | 59 | 66 | 1.7 | 2.6 | 0.00 | 0.00 | 0.00 | 71 | 1021.1 |
| 20260507011500 | 59 | 89 | 3.5 | 6.1 | 0.00 | 0.00 | 0.00 | 70 | 1021.2 |
| 20260507010955 | 59 | 114 | 1.7 | 4.3 | 0.00 | 0.00 | 0.00 | 70 | 1021.2 |
| 20260507010450 | 59 | 83 | 1.7 | 3.5 | 0.00 | 0.00 | 0.00 | 70 | 1021.2 |
| 20260507005947 | 59 | 43 | 0.0 | 4.3 | 0.00 | 0.00 | 0.00 | 70 | 1021.3 |
| 20260507005445 | 59 | 254 | 0.0 | 3.5 | 0.00 | 0.00 | 0.00 | 70 | 1021.3 |
| 20260507004941 | 59 | 225 | 0.0 | 1.7 | 0.00 | 0.00 | 0.00 | 70 | 1021.4 |
| 20260507004438 | 59 | 105 | 3.5 | 5.2 | 0.00 | 0.00 | 0.00 | 70 | 1021.2 |
| 20260507003936 | 59 | 113 | 1.7 | 3.5 | 0.00 | 0.00 | 0.00 | 70 | 1021.5 |
| 20260507003430 | 59 | 105 | 2.6 | 6.1 | 0.00 | 0.00 | 0.00 | 69 | 1021.2 |
| 20260507002926 | 59 | 87 | 2.6 | 3.5 | 0.00 | 0.00 | 0.00 | 70 | 1021.3 |
| 20260507002422 | 59 | 76 | 1.7 | 1.7 | 0.00 | 0.00 | 0.00 | 69 | 1021.2 |
| 20260507001919 | 59 | 219 | 0.9 | 3.5 | 0.00 | 0.00 | 0.00 | 69 | 1021.1 |
| 20260507001416 | 59 | 110 | 3.5 | 7.0 | 0.00 | 0.00 | 0.00 | 69 | 1021.3 |
| 20260507000914 | 59 | 105 | 5.2 | 6.1 | 0.00 | 0.00 | 0.00 | 68 | 1021.1 |
| 20260507000409 | 59 | 119 | 5.2 | 5.2 | 0.00 | 0.00 | 0.00 | 68 | 1021.2 |
| 20260506235905 | 59 | 102 | 2.6 | 5.2 | 0.00 | 0.00 | 0.00 | 69 | 1021.2 |
| 20260506235402 | 59 | 108 | 3.5 | 5.2 | 0.00 | 0.00 | 0.00 | 69 | 1021.2 |
| 20260506234858 | 59 | 121 | 5.2 | 8.7 | 0.00 | 0.00 | 0.00 | 69 | 1021.1 |
| 20260506234355 | 59 | 107 | 2.6 | 7.8 | 0.00 | 0.00 | 0.00 | 69 | 1021.2 |
| 20260506233853 | 59 | 107 | 5.2 | 7.0 | 0.00 | 0.00 | 0.00 | 69 | 1021.1 |
| 20260506233349 | 59 | 114 | 1.7 | 6.1 | 0.00 | 0.00 | 0.00 | 69 | 1021.3 |
| 20260506232846 | 59 | 120 | 6.1 | 8.7 | 0.00 | 0.00 | 0.00 | 68 | 1021.3 |
| 20260506232342 | 59 | 91 | 4.3 | 4.3 | 0.00 | 0.00 | 0.00 | 69 | 1021.3 |
| 20260506231838 | 59 | 63 | 1.7 | 4.3 | 0.00 | 0.00 | 0.00 | 69 | 1021.5 |
| 20260506231336 | 59 | 143 | 1.7 | 4.3 | 0.00 | 0.00 | 0.00 | 69 | 1021.4 |
| 20260506230833 | 59 | 223 | 3.5 | 5.2 | 0.00 | 0.00 | 0.00 | 68 | 1021.4 |
| 20260506230330 | 59 | 216 | 0.0 | 3.5 | 0.00 | 0.00 | 0.00 | 69 | 1021.5 |
| 20260506225826 | 59 | 160 | 1.7 | 5.2 | 0.00 | 0.00 | 0.00 | 70 | 1021.5 |
| 20260506225324 | 59 | 68 | 0.0 | 11.3 | 0.00 | 0.00 | 0.00 | 70 | 1021.2 |
| 20260506224820 | 59 | 239 | 2.6 | 5.2 | 0.00 | 0.00 | 0.00 | 70 | 1021.6 |
| 20260506224318 | 59 | 120 | 3.5 | 9.6 | 0.00 | 0.00 | 0.00 | 70 | 1021.2 |
| 20260506223814 | 59 | 72 | 0.9 | 3.5 | 0.00 | 0.00 | 0.00 | 72 | 1021.5 |
| 20260506223309 | 59 | 217 | 0.9 | 3.5 | 0.00 | 0.00 | 0.00 | 73 | 1021.4 |
| 20260506222807 | 59 | 231 | 1.7 | 2.6 | 0.00 | 0.00 | 0.00 | 72 | 1021.5 |
| 20260506222305 | 59 | 108 | 1.7 | 5.2 | 0.00 | 0.00 | 0.00 | 73 | 1021.5 |
| 20260506221800 | 59 | 49 | 0.0 | 1.7 | 0.00 | 0.00 | 0.00 | 72 | 1021.5 |
| 20260506221258 | 59 | 68 | 1.7 | 7.0 | 0.00 | 0.00 | 0.00 | 73 | 1021.6 |
| 20260506220756 | 59 | 215 | 1.7 | 3.5 | 0.00 | 0.00 | 0.00 | 72 | 1021.6 |
| 20260506220255 | 59 | 148 | 0.9 | 3.5 | 0.00 | 0.00 | 0.00 | 73 | 1021.5 |
| 20260506215752 | 59 | 252 | 1.7 | 5.2 | 0.00 | 0.00 | 0.00 | 72 | 1021.5 |
| 20260506215248 | 59 | 214 | 2.6 | 5.2 | 0.00 | 0.00 | 0.00 | 73 | 1021.5 |
| 20260506214744 | 58 | 239 | 2.6 | 4.3 | 0.00 | 0.00 | 0.00 | 74 | 1021.6 |
| 20260506214242 | 58 | 233 | 5.2 | 7.0 | 0.00 | 0.00 | 0.00 | 75 | 1021.6 |
| 20260506213740 | 58 | 227 | 2.6 | 5.2 | 0.00 | 0.00 | 0.00 | 74 | 1021.6 |
| 20260506213237 | 59 | 226 | 0.9 | 4.3 | 0.00 | 0.00 | 0.00 | 73 | 1021.8 |
| 20260506212734 | 59 | 250 | 1.7 | 5.2 | 0.00 | 0.00 | 0.00 | 73 | 1021.7 |
| 20260506212230 | 59 | 212 | 3.5 | 4.3 | 0.00 | 0.00 | 0.00 | 72 | 1021.5 |
| 20260506211725 | 59 | 192 | 2.6 | 7.8 | 0.00 | 0.00 | 0.00 | 72 | 1021.7 |
| 20260506211222 | 59 | 244 | 4.3 | 5.2 | 0.00 | 0.00 | 0.00 | 72 | 1021.6 |
| 20260506210719 | 59 | 298 | 1.7 | 5.2 | 0.00 | 0.00 | 0.00 | 73 | 1021.7 |
| 20260506210216 | 59 | 226 | 5.2 | 7.0 | 0.00 | 0.00 | 0.00 | 73 | 1021.5 |
| 20260506205713 | 59 | 220 | 12.2 | 13.0 | 0.00 | 0.00 | 0.00 | 72 | 1021.4 |
| 20260506205208 | 59 | 113 | 1.7 | 7.0 | 0.00 | 0.00 | 0.00 | 71 | |
| 20260506204705 | 59 | 283 | 0.9 | 5.2 | 0.00 | 0.00 | 0.00 | 71 | |
| 20260506204202 | 59 | 283 | 0.9 | 5.2 | 0.00 | 0.00 | 0.00 | 71 | |
| 20260506203700 | 59 | 112 | 1.7 | 4.3 | 0.00 | 0.00 | 0.00 | 72 | |
| 20260506203157 | 59 | 223 | 1.7 | 7.8 | 0.00 | 0.00 | 0.00 | 71 | |
| 20260506202655 | 59 | 140 | 7.8 | 10.4 | 0.00 | 0.00 | 0.00 | 72 | |
| 20260506202151 | 59 | 232 | 2.6 | 7.8 | 0.00 | 0.00 | 0.00 | 72 | |
| 20260506201648 | 59 | 182 | 4.3 | 5.2 | 0.00 | 0.00 | 0.00 | 72 | |
| 20260506201144 | 59 | 174 | 3.5 | 13.0 | 0.00 | 0.00 | 0.00 | 72 | |
| 20260506200641 | 59 | 216 | 5.2 | 8.7 | 0.00 | 0.00 | 0.00 | 71 | |
| 20260506200138 | 59 | 216 | 3.5 | 7.0 | 0.00 | 0.00 | 0.00 | 74 | |
| 20260506195635 | 59 | 254 | 1.7 | 9.6 | 0.00 | 0.00 | 0.00 | 73 | |
| 20260506195131 | 59 | 217 | 3.5 | 5.2 | 0.00 | 0.00 | 0.00 | 74 | |
| 20260506194629 | 59 | 126 | 10.4 | 11.3 | 0.00 | 0.00 | 0.00 | 72 | |
| 20260506194125 | 59 | 126 | 7.0 | 7.8 | 0.00 | 0.00 | 0.00 | 74 | |
| 20260506193623 | 59 | 120 | 8.7 | 9.6 | 0.00 | 0.00 | 0.00 | 76 | |
| 20260506193120 | 58 | 127 | 4.3 | 10.4 | 0.00 | 0.00 | 0.00 | 77 | |
| 20260506192616 | 58 | 117 | 4.3 | 8.7 | 0.00 | 0.00 | 0.00 | 78 | |
| 20260506192112 | 58 | 113 | 1.7 | 6.1 | 0.00 | 0.00 | 0.00 | 78 | |
| 20260506191609 | 58 | 119 | 1.7 | 3.5 | 0.00 | 0.00 | 0.00 | 79 | |
| 20260506191105 | 57 | 118 | 4.3 | 7.0 | 0.00 | 0.00 | 0.00 | 79 | |
| 20260506190603 | 57 | 231 | 2.6 | 3.5 | 0.00 | 0.00 | 0.00 | 79 | |
| 20260506190059 | 57 | 186 | 3.5 | 4.3 | 0.00 | 0.00 | 0.00 | 80 | |
| 20260506185557 | 57 | 130 | 2.6 | 4.3 | 0.00 | 0.00 | 0.00 | 79 | |
| 20260506185053 | 57 | 205 | 1.7 | 5.2 | 0.00 | 0.00 | 0.00 | 79 | |
| 20260506184550 | 57 | 178 | 2.6 | 4.3 | 0.00 | 0.00 | 0.00 | 79 | |
| 20260506184048 | 57 | 242 | 0.0 | 2.6 | 0.00 | 0.00 | 0.00 | 81 | |
| 20260506183543 | 57 | 133 | 6.1 | 7.0 | 0.00 | 0.00 | 0.00 | 80 | |
| 20260506183040 | 57 | 183 | 0.9 | 6.1 | 0.00 | 0.00 | 0.00 | 79 | |
| 20260506182538 | 57 | 169 | 2.6 | 6.1 | 0.00 | 0.00 | 0.00 | 80 | |
| 20260506182035 | 57 | 241 | 1.7 | 5.2 | 0.00 | 0.00 | 0.00 | 81 | |
| 20260506181533 | 57 | 248 | 0.0 | 5.2 | 0.00 | 0.00 | 0.00 | 81 | |
| 20260506181029 | 57 | 86 | 1.7 | 2.6 | 0.00 | 0.00 | 0.00 | 83 | |
| 20260506180525 | 57 | 114 | 3.5 | 4.3 | 0.00 | 0.00 | 0.00 | 82 | |
| 20260506180022 | 57 | 118 | 1.7 | 1.7 | 0.00 | 0.00 | 0.00 | 83 | |
| 20260506175519 | 57 | 252 | 4.3 | 4.3 | 0.00 | 0.00 | 0.00 | 83 | |
| 20260506175015 | 57 | 119 | 3.5 | 4.3 | 0.00 | 0.00 | 0.00 | 85 | |
| 20260506174514 | 57 | 235 | 0.9 | 1.7 | 0.00 | 0.00 | 0.00 | 86 | |
| 20260506174010 | 56 | 157 | 1.7 | 3.5 | 0.00 | 0.00 | 0.00 | 85 | |
| 20260506173508 | 56 | 232 | 0.9 | 5.2 | 0.00 | 0.00 | 0.00 | 85 | |
| 20260506173004 | 56 | 234 | 3.5 | 6.1 | 0.00 | 0.00 | 0.00 | 85 | |
| 20260506172502 | 56 | 145 | 0.0 | 2.6 | 0.00 | 0.00 | 0.00 | 85 | |
| 20260506171957 | 56 | 150 | 2.6 | 5.2 | 0.00 | 0.00 | 0.00 | 84 | |
| 20260506171455 | 56 | 245 | 3.5 | 3.5 | 0.00 | 0.00 | 0.00 | 84 | |
| 20260506170953 | 56 | 294 | 0.0 | 3.5 | 0.00 | 0.00 | 0.00 | 83 | |
| 20260506170449 | 57 | 135 | 1.7 | 3.5 | 0.00 | 0.00 | 0.00 | 83 | |
| 20260506165948 | 56 | 333 | 0.0 | 5.2 | 0.00 | 0.00 | 0.00 | 83 | |
| 20260506165446 | 56 | 296 | 0.0 | 5.2 | 0.00 | 0.00 | 0.00 | 84 | |
| 20260506164942 | 57 | 88 | 0.9 | 1.7 | 0.00 | 0.00 | 0.00 | 84 | |
| 20260506164439 | 57 | 25 | 0.0 | 1.7 | 0.00 | 0.00 | 0.00 | 84 | |
| 20260506163937 | 56 | 13 | 1.7 | 1.7 | 0.00 | 0.00 | 0.00 | 84 | |
| 20260506163431 | 56 | 337 | 0.0 | 1.7 | 0.00 | 0.00 | 0.00 | 84 | |
| 20260506162926 | 56 | 61 | 1.7 | 1.7 | 0.00 | 0.00 | 0.00 | 85 | |
| 20260506162425 | 56 | 42 | 0.9 | 2.6 | 0.00 | 0.00 | 0.00 | 85 | |
| 20260506161922 | 56 | 60 | 1.7 | 2.6 | 0.00 | 0.00 | 0.00 | 86 | |
| 20260506161420 | 56 | 78 | 3.5 | 3.5 | 0.00 | 0.00 | 0.00 | 86 | |
| 20260506160917 | 56 | 92 | 2.6 | 2.6 | 0.00 | 0.00 | 0.00 | 85 | |
| 20260506160414 | 56 | 87 | 1.7 | 3.5 | 0.00 | 0.00 | 0.00 | 85 | |
| 20260506155912 | 56 | 108 | 2.6 | 4.3 | 0.00 | 0.00 | 0.00 | 85 | |
| 20260506155409 | 56 | 92 | 1.7 | 3.5 | 0.00 | 0.00 | 0.00 | 86 | |
| 20260506153531 | 55 | 101 | 2.6 | 4.3 | 0.00 | 0.00 | 0.00 | 88 | |
| 20260506153028 | 55 | 82 | 1.7 | 3.5 | 0.00 | 0.00 | 0.00 | 88 | |
| 20260506152525 | 55 | 121 | 3.5 | 4.3 | 0.00 | 0.00 | 0.00 | 88 | |
| 20260506152023 | 55 | 78 | 1.7 | 3.5 | 0.00 | 0.00 | 0.00 | 88 | |
| 20260506151520 | 55 | 70 | 1.7 | 3.5 | 0.00 | 0.00 | 0.00 | 88 | |
| 20260506151018 | 55 | 339 | 1.7 | 2.6 | 0.00 | 0.00 | 0.00 | 89 | |
| 20260506150513 | 55 | 57 | 1.7 | 2.6 | 0.00 | 0.00 | 0.00 | 90 | |
| 20260506150011 | 55 | 55 | 3.5 | 3.5 | 0.00 | 0.00 | 0.00 | 90 | |
| 20260506145507 | 55 | 61 | 2.6 | 3.5 | 0.00 | 0.00 | 0.00 | 90 | |
| 20260506145005 | 55 | 52 | 5.2 | 5.2 | 0.00 | 0.00 | 0.00 | 91 | |
| 20260506144501 | 54 | 57 | 3.5 | 4.3 | 0.00 | 0.00 | 0.00 | 92 | |
| 20260506143959 | 54 | 70 | 3.5 | 4.3 | 0.00 | 0.00 | 0.00 | 92 | |
| 20260506143456 | 55 | 57 | 2.6 | 3.5 | 0.00 | 0.00 | 0.00 | 92 | |
| 20260506142955 | 55 | 48 | 2.6 | 3.5 | 0.00 | 0.00 | 0.00 | 92 | |
| 20260506142452 | 54 | 86 | 1.7 | 4.3 | 0.00 | 0.00 | 0.00 | 91 | |
| 20260506141950 | 55 | 91 | 2.6 | 3.5 | 0.00 | 0.00 | 0.00 | 91 | |
| 20260506141447 | 54 | 78 | 1.7 | 3.5 | 0.00 | 0.00 | 0.00 | 91 | |
| 20260506140946 | 54 | 91 | 2.6 | 3.5 | 0.00 | 0.00 | 0.00 | 90 | |
| 20260506140442 | 54 | 75 | 2.6 | 2.6 | 0.00 | 0.00 | 0.00 | 90 | |
| 20260506135939 | 54 | 102 | 2.6 | 3.5 | 0.00 | 0.00 | 0.00 | 90 | |
| 20260506135437 | 54 | 76 | 1.7 | 3.5 | 0.00 | 0.00 | 0.00 | 89 | |
| 20260506134932 | 55 | 89 | 1.7 | 2.6 | 0.00 | 0.00 | 0.00 | 89 | |
| 20260506134429 | 55 | 70 | 1.7 | 2.6 | 0.00 | 0.00 | 0.00 | 89 | |
| 20260506133926 | 55 | 59 | 1.7 | 3.5 | 0.00 | 0.00 | 0.00 | 88 | |
| 20260506133423 | 55 | 50 | 2.6 | 2.6 | 0.00 | 0.00 | 0.00 | 88 | |
| 20260506132919 | 55 | 32 | 1.7 | 3.5 | 0.00 | 0.00 | 0.00 | 88 | |
| 20260506132416 | 55 | 70 | 2.6 | 2.6 | 0.00 | 0.00 | 0.00 | 88 | |
| 20260506131914 | 55 | 16 | 1.7 | 1.7 | 0.00 | 0.00 | 0.00 | 88 | |
| 20260506131410 | 55 | 60 | 2.6 | 3.5 | 0.00 | 0.00 | 0.00 | 88 | |
| 20260506130908 | 54 | 72 | 1.7 | 2.6 | 0.00 | 0.00 | 0.00 | 89 | |
| 20260506130403 | 54 | 34 | 1.7 | 3.5 | 0.00 | 0.00 | 0.00 | 89 | |
| 20260506125902 | 54 | 67 | 2.6 | 2.6 | 0.00 | 0.00 | 0.00 | 89 | |
| 20260506125400 | 54 | 27 | 2.6 | 2.6 | 0.00 | 0.00 | 0.00 | 89 | |
| 20260506124858 | 54 | 24 | 0.9 | 6.1 | 0.00 | 0.00 | 0.00 | 89 | |
| 20260506124354 | 54 | 65 | 3.5 | 3.5 | 0.00 | 0.00 | 0.00 | 89 | |
| 20260506123853 | 54 | 81 | 2.6 | 3.5 | 0.00 | 0.00 | 0.00 | 88 | |
| 20260506123351 | 54 | 34 | 1.7 | 3.5 | 0.00 | 0.00 | 0.00 | 88 | |
| 20260506122848 | 54 | 49 | 2.6 | 3.5 | 0.00 | 0.00 | 0.00 | 89 | |
| 20260506122344 | 54 | 24 | 1.7 | 3.5 | 0.00 | 0.00 | 0.00 | 89 | |
| 20260506121843 | 54 | 68 | 1.7 | 3.5 | 0.00 | 0.00 | 0.00 | 89 | |
| 20260506121339 | 54 | 41 | 1.7 | 4.3 | 0.00 | 0.00 | 0.00 | 89 | |
| 20260506120836 | 54 | 69 | 3.5 | 4.3 | 0.00 | 0.00 | 0.00 | 90 | |
| 20260506120334 | 54 | 76 | 1.7 | 4.3 | 0.00 | 0.00 | 0.00 | 90 | |
| 20260506115831 | 54 | 49 | 2.6 | 4.3 | 0.00 | 0.00 | 0.00 | 90 | |
| 20260506115329 | 54 | 55 | 1.7 | 3.5 | 0.00 | 0.00 | 0.00 | 90 | |
| 20260506114827 | 54 | 358 | 1.7 | 2.6 | 0.00 | 0.00 | 0.00 | 90 | |
| 20260506114325 | 54 | 5 | 2.6 | 3.5 | 0.00 | 0.00 | 0.00 | 90 | |
| 20260506113823 | 54 | 63 | 1.7 | 3.5 | 0.00 | 0.00 | 0.00 | 90 | |
| 20260506113320 | 54 | 24 | 1.7 | 2.6 | 0.00 | 0.00 | 0.00 | 91 | |
| 20260506112817 | 53 | 25 | 1.7 | 2.6 | 0.00 | 0.00 | 0.00 | 92 | |
| 20260506112314 | 53 | 17 | 0.9 | 2.6 | 0.00 | 0.00 | 0.00 | 92 | |
| 20260506111811 | 53 | 53 | 1.7 | 3.5 | 0.00 | 0.00 | 0.00 | 92 | |
| 20260506111309 | 53 | 75 | 1.7 | 3.5 | 0.00 | 0.00 | 0.00 | 92 | |
| 20260506110807 | 53 | 27 | 1.7 | 3.5 | 0.00 | 0.00 | 0.00 | 93 | |
| 20260506110304 | 53 | 46 | 2.6 | 3.5 | 0.00 | 0.00 | 0.00 | 93 | |
| 20260506105800 | 53 | 72 | 3.5 | 5.2 | 0.00 | 0.00 | 0.00 | 93 | |
| 20260506105257 | 53 | 108 | 1.7 | 4.3 | 0.00 | 0.00 | 0.00 | 93 | |
| 20260506104755 | 53 | 78 | 1.7 | 3.5 | 0.00 | 0.00 | 0.00 | 93 | |
| 20260506104252 | 53 | 82 | 0.9 | 4.3 | 0.00 | 0.00 | 0.00 | 93 | |
| 20260506103749 | 53 | 88 | 1.7 | 2.6 | 0.00 | 0.00 | 0.00 | 93 | |
| 20260506103247 | 53 | 82 | 1.7 | 1.7 | 0.00 | 0.00 | 0.00 | 93 | |
| 20260506102744 | 53 | 50 | 1.7 | 2.6 | 0.00 | 0.00 | 0.00 | 93 | |
| 20260506102242 | 53 | 71 | 1.7 | 3.5 | 0.00 | 0.00 | 0.00 | 93 | |
| 20260506101739 | 53 | 64 | 2.6 | 3.5 | 0.00 | 0.00 | 0.00 | 93 | |
| 20260506101235 | 53 | 84 | 1.7 | 3.5 | 0.00 | 0.00 | 0.00 | 93 | |
| 20260506100733 | 53 | 48 | 1.7 | 3.5 | 0.00 | 0.00 | 0.00 | 93 | |
| 20260506100231 | 53 | 72 | 1.7 | 3.5 | 0.00 | 0.00 | 0.00 | 93 | |
| 20260506095729 | 53 | 39 | 1.7 | 3.5 | 0.00 | 0.00 | 0.00 | 92 | |
| 20260506095226 | 53 | 66 | 1.7 | 2.6 | 0.00 | 0.00 | 0.00 | 93 | |
| 20260506094723 | 53 | 61 | 2.6 | 4.3 | 0.00 | 0.00 | 0.00 | 92 | |
| 20260506094221 | 53 | 48 | 2.6 | 4.3 | 0.00 | 0.00 | 0.00 | 93 | |
| 20260506093720 | 53 | 60 | 2.6 | 3.5 | 0.00 | 0.00 | 0.00 | 93 | |
| 20260506093216 | 53 | 56 | 1.7 | 3.5 | 0.00 | 0.00 | 0.00 | 93 | |
| 20260506092714 | 53 | 58 | 2.6 | 3.5 | 0.00 | 0.00 | 0.00 | 94 | |
| 20260506092211 | 53 | 46 | 2.6 | 3.5 | 0.00 | 0.00 | 0.00 | 94 | |
| 20260506091709 | 53 | 24 | 1.7 | 2.6 | 0.00 | 0.00 | 0.00 | 94 | |
| 20260506091206 | 53 | 10 | 2.6 | 3.5 | 0.00 | 0.00 | 0.00 | 94 | |
| 20260506090704 | 53 | 14 | 2.6 | 3.5 | 0.00 | 0.00 | 0.00 | 94 | |
| 20260506090200 | 53 | 34 | 1.7 | 2.6 | 0.00 | 0.00 | 0.00 | 94 | |
| 20260506085657 | 53 | 51 | 1.7 | 2.6 | 0.00 | 0.00 | 0.00 | 93 | |
| 20260506085153 | 53 | 50 | 1.7 | 1.7 | 0.00 | 0.00 | 0.00 | 93 | |
| 20260506084650 | 53 | 65 | 1.7 | 2.6 | 0.00 | 0.00 | 0.00 | 93 | |
| 20260506084147 | 53 | 30 | 0.9 | 2.6 | 0.00 | 0.00 | 0.00 | 93 | |
| 20260506083644 | 53 | 48 | 1.7 | 2.6 | 0.00 | 0.00 | 0.00 | 93 | |
| 20260506083141 | 53 | 38 | 0.9 | 1.7 | 0.00 | 0.00 | 0.00 | 93 | |
| 20260506082638 | 53 | 42 | 0.9 | 2.6 | 0.00 | 0.00 | 0.00 | 93 | |
| 20260506082133 | 53 | 52 | 1.7 | 2.6 | 0.00 | 0.00 | 0.00 | 92 | |
| 20260506081632 | 53 | 61 | 1.7 | 2.6 | 0.00 | 0.00 | 0.00 | 92 | |
| 20260506081129 | 54 | 67 | 2.6 | 3.5 | 0.00 | 0.00 | 0.00 | 92 | |
| 20260506080627 | 54 | 30 | 1.7 | 2.6 | 0.00 | 0.00 | 0.00 | 92 | |
| 20260506080123 | 54 | 55 | 3.5 | 3.5 | 0.00 | 0.00 | 0.00 | 92 | |
| 20260506073107 | 55 | 41 | 2.6 | 3.5 | 0.00 | 0.00 | 0.00 | 89 | |
| 20260506072603 | 56 | 68 | 3.5 | 4.3 | 0.00 | 0.00 | 0.00 | 89 | |
| 20260506072102 | 56 | 45 | 2.6 | 3.5 | 0.00 | 0.00 | 0.00 | 88 | |
| 20260506071559 | 56 | 60 | 2.6 | 3.5 | 0.00 | 0.00 | 0.00 | 89 | |
| 20260506071056 | 56 | 57 | 2.6 | 3.5 | 0.00 | 0.00 | 0.00 | 88 | |
| 20260506070554 | 56 | 64 | 1.7 | 2.6 | 0.00 | 0.00 | 0.00 | 88 | |
| 20260506062033 | 56 | 16 | 1.7 | 2.6 | 0.00 | 0.00 | 0.00 | 86 | |
| 20260506061529 | 56 | 10 | 2.6 | 2.6 | 0.00 | 0.00 | 0.00 | 86 | |
| 20260506061027 | 57 | 43 | 1.7 | 2.6 | 0.00 | 0.00 | 0.00 | 85 | |
| 20260506060525 | 57 | 6 | 1.7 | 2.6 | 0.00 | 0.00 | 0.00 | 85 | |
| 20260506050954 | 59 | 54 | 2.6 | 3.5 | 0.00 | 0.00 | 0.00 | 81 | |
| 20260506050452 | 59 | 54 | 2.6 | 3.5 | 0.00 | 0.00 | 0.00 | 80 | |
| 20260506044942 | 60 | 51 | 2.6 | 4.3 | 0.00 | 0.00 | 0.00 | 79 | |
| 20260506044440 | 60 | 60 | 2.6 | 4.3 | 0.00 | 0.00 | 0.00 | 79 | |
| 20260506043936 | 60 | 50 | 2.6 | 3.5 | 0.00 | 0.00 | 0.00 | 78 | |
| 20260506043434 | 60 | 60 | 3.5 | 4.3 | 0.00 | 0.00 | 0.00 | 78 | |
| 20260506042931 | 60 | 58 | 2.6 | 3.5 | 0.00 | 0.00 | 0.00 | 77 | |
| 20260506042431 | 61 | 65 | 3.5 | 3.5 | 0.00 | 0.00 | 0.00 | 77 | |
| 20260506041928 | 61 | 57 | 1.7 | 3.5 | 0.00 | 0.00 | 0.00 | 76 | |
| 20260506041426 | 61 | 50 | 3.5 | 3.5 | 0.00 | 0.00 | 0.00 | 75 | |
| 20260506040923 | 62 | 56 | 1.7 | 3.5 | 0.00 | 0.00 | 0.00 | 74 | |
| 20260506040421 | 62 | 51 | 1.7 | 1.7 | 0.00 | 0.00 | 0.00 | 74 | |
| 20260506035916 | 62 | 50 | 1.7 | 1.7 | 0.00 | 0.00 | 0.00 | 73 | |
| 20260506035414 | 62 | 55 | 1.7 | 2.6 | 0.00 | 0.00 | 0.00 | 72 | |
| 20260506034911 | 62 | 63 | 1.7 | 1.7 | 0.00 | 0.00 | 0.00 | 72 | |
| 20260506034408 | 63 | 61 | 1.7 | 1.7 | 0.00 | 0.00 | 0.00 | 71 | |
| 20260506033905 | 63 | 45 | 1.7 | 1.7 | 0.00 | 0.00 | 0.00 | 71 | |
| 20260506033402 | 63 | 65 | 0.9 | 1.7 | 0.00 | 0.00 | 0.00 | 70 | |
| 20260506032859 | 63 | 36 | 1.7 | 2.6 | 0.00 | 0.00 | 0.00 | 70 | |
| 20260506032355 | 64 | 23 | 0.9 | 2.6 | 0.00 | 0.00 | 0.00 | 69 | |
| 20260506031852 | 64 | 60 | 1.7 | 1.7 | 0.00 | 0.00 | 0.00 | 69 | |
| 20260506031350 | 64 | 50 | 1.7 | 2.6 | 0.00 | 0.00 | 0.00 | 68 | |
| 20260506030847 | 64 | 30 | 1.7 | 2.6 | 0.00 | 0.00 | 0.00 | 68 | |
| 20260506030345 | 65 | 59 | 2.6 | 3.5 | 0.00 | 0.00 | 0.00 | 67 | |
| 20260506025842 | 65 | 70 | 2.6 | 2.6 | 0.00 | 0.00 | 0.00 | 66 | |
| 20260506025338 | 65 | 54 | 2.6 | 2.6 | 0.00 | 0.00 | 0.00 | 66 | |
| 20260506024835 | 66 | 50 | 1.7 | 3.5 | 0.00 | 0.00 | 0.00 | 65 | |
| 20260506024332 | 66 | 63 | 1.7 | 2.6 | 0.00 | 0.00 | 0.00 | 64 | |
| 20260506023828 | 66 | 63 | 0.9 | 3.5 | 0.00 | 0.00 | 0.00 | 64 |